Starlink 11638

operational
NORAD ID: 63269 Int'l Des: 2025-053 Owner: SPXS Country: US Constellation: starlink
LEOCIRCULAR

Über Starlink 11638

Beschreibung wird geladen...

Live-Position

3D-Globus wird geladen...

Nächste Überflüge

Höhenverlauf

Altitude vs Time

uPlot chart will show altitude changes over time

Zweizeiliger Elementsatz

1 63269U 25053E 25308.62954857 .00275849 00000-0 20845-2 0 9991
2 63269 43.0000 145.7917 0001652 257.4578 102.6105 15.70819206 38006
Epoch: 4. Nov. 2025 • Age: 7 hours

Aktueller Status

Höhe 355.4 km
Geschwindigkeit 7.70 km/s
Subsatellitenpunkt 3.46°N, 53.33°W
Startdatum 15. März 2025
Alter 0.6 years
Typ internet

Technische Details

Klassifizierung Payload
Masse 960.00 kg
Trockenmasse 910.00 kg
Gesamtmasse 960.00 kg
Länge 0.30 m
Durchmesser 4.10 m
Spannweite 29.00 m
Form Box + pan
Hersteller SPXS
Bus-Typ Starlink V2MD
Phasenstatus In Orbit
Besitzer/Staat SPXS/US

Große Konstellationen

Loading constellations...